Flag for Portugal Weather past 2 weeks in Funchal, Madeira, Portugal

Now
73 °F

Scattered clouds.


Feels Like: 76 °F
Forecast: 71 / 77 °F
Wind: 9 mph from North

Location: Aeroporto Da Madeira

Current Time: Jul 31, 2014 at 9:33:50 PM

Latest Report: Jul 31, 2014 at 8:30 PM


Visibility: N/A

Pressure: 30.15 "Hg

Humidity: 61%

Dew point: 59 °F

Location of FunchalLocation

Historic Weather in Funchal — Graph

°F

Funchal temperature yesterday

Maximum temperature yesterday: 75 °F (at 11:30 AM)
Minimum temperature yesterday: 68 °F (at 4:30 AM)
Average temperature yesterday: 71 °F

Past Weeks' High & Low Weather Summary

 TemperatureHumidityPressure
High81 °F (Jul 18, 2:30 PM)88% (Jul 22, 6:00 AM)30.24 "Hg (Jul 22, 6:00 AM)
Low64 °F (Jul 18, 4:30 AM)47% (Jul 28, 11:30 AM)30.01 "Hg (Jul 30, 4:00 AM)
Average71 °F67%30.12 "Hg
* Reported Jul 16 8:00 PM — Jul 31 8:00 PM, Funchal, Weather by CustomWeather, © 2014

Note: Actual official high and low records may vary slightly from our data, if they occured in-between our weather recording intervals... More about our weather records

Advertising

Funchal weather history for previous 24 hours

 ConditionsComfort  
Time TempWeatherWind HumidityBarometerVisibility
8:00 PM
Jul 31
73 °FScattered clouds.8 mph61%30.15 "HgN/A
7:30 PM73 °FBroken clouds.7 mph61%30.15 "HgN/A
7:00 PM73 °FBroken clouds.8 mph65%30.12 "HgN/A
6:30 PM73 °FBroken clouds.10 mph61%30.12 "HgN/A
6:00 PM73 °FBroken clouds.6 mph65%30.12 "HgN/A
5:30 PM73 °FPartly sunny.6 mph61%30.12 "HgN/A
5:00 PM73 °FPartly sunny.6 mph61%30.12 "HgN/A
4:30 PM75 °FPartly sunny.8 mph57%30.12 "HgN/A
4:00 PM75 °FPartly sunny.5 mph57%30.12 "HgN/A
3:30 PM75 °FPartly sunny.6 mph57%30.15 "HgN/A
3:00 PM75 °FBroken clouds.6 mph57%30.15 "HgN/A
2:30 PM77 °FBroken clouds.3 mph54%30.15 "HgN/A
2:00 PM75 °FBroken clouds.8 mph57%30.12 "HgN/A
1:30 PM77 °FBroken clouds.9 mph54%30.15 "HgN/A
1:00 PM77 °FBroken clouds.9 mph51%30.12 "HgN/A
12:30 PM77 °FBroken clouds.14 mph51%30.12 "HgN/A
12:00 PM75 °FBroken clouds.12 mph54%30.12 "HgN/A
11:30 AM75 °FBroken clouds.8 mph54%30.12 "HgN/A
11:00 AM72 °FBroken clouds.6 mph61%30.12 "HgN/A
10:30 AM72 °FBroken clouds.5 mph61%30.12 "HgN/A
10:00 AM72 °FBroken clouds.3 mph57%30.12 "HgN/A
9:30 AM72 °FBroken clouds.5 mph57%30.12 "HgN/A
9:00 AM70 °FBroken clouds.7 mph60%30.12 "HgN/A
8:30 AM70 °FBroken clouds.10 mph60%30.09 "HgN/A
8:00 AM70 °FPartly cloudy.12 mph60%30.09 "HgN/A
7:30 AM70 °FPartly cloudy.10 mph60%30.09 "HgN/A
7:00 AM70 °FPartly cloudy.9 mph60%30.09 "HgN/A
6:30 AM70 °FPassing clouds.7 mph60%30.07 "HgN/A
6:00 AM70 °FPassing clouds.6 mph60%30.07 "HgN/A
5:30 AM70 °FPassing clouds.6 mph60%30.07 "HgN/A
5:00 AM70 °FPassing clouds.6 mph60%30.07 "HgN/A
4:30 AM70 °FPassing clouds.8 mph60%30.07 "HgN/A
4:00 AM70 °FPassing clouds.5 mph60%30.07 "HgN/A
3:30 AM70 °FPassing clouds.9 mph64%30.07 "HgN/A
3:00 AM70 °FPassing clouds.10 mph64%30.07 "HgN/A
2:30 AM70 °FPassing clouds.10 mph64%30.07 "HgN/A
2:00 AM72 °FPassing clouds.10 mph61%30.07 "HgN/A
1:30 AM72 °FPassing clouds.12 mph57%30.07 "HgN/A
1:00 AM72 °FPassing clouds.7 mph61%30.09 "HgN/A
12:30 AM70 °FPassing clouds.5 mph69%30.09 "HgN/A
12:00 AM72 °FPassing clouds.5 mph65%30.09 "HgN/A
11:30 PM
Jul 30
72 °FPassing clouds.3 mph65%30.09 "HgN/A
11:00 PM72 °FPassing clouds.7 mph65%30.07 "HgN/A
10:30 PM72 °FPassing clouds.6 mph65%30.07 "HgN/A
10:00 PM70 °FBroken clouds.5 mph69%30.07 "HgN/A
9:30 PM70 °FBroken clouds.5 mph73%30.07 "HgN/A
9:00 PM72 °FBroken clouds.8 mph69%30.04 "HgN/A
Weather by CustomWeather, © 2014

See weather overviewHow to use our weather pages